Weather History for Fort Indiantown Gap, PA

Change the Weather History Date:

Saturday, November 9, 2013

  Actual Average Record
Temperature  
Mean Temperature 38 °F -  
Max Temperature 50 °F 51 °F 66 °F (2006)
Min Temperature 27 °F 35 °F 27 °F (2013)
Degree Days  
Heating Degree Days 26    
Moisture  
Dew Point 27 °F    
Average Humidity 67    
Maximum Humidity 96    
Minimum Humidity 39    
Precipitation  
Precipitation 0.00 in - - ()
Sea Level Pressure  
Sea Level Pressure 30.20 in    
Wind  
Wind Speed 4 mph (SW)    
Max Wind Speed 12 mph    
Max Gust Speed -    
Visibility 10 miles    
Events      
Averages and records for this station are not official NWS values.
T = Trace of Precipitation, MM = Missing Value Source: NWS Daily Summary

Daily Weather History Graph

Daily Weather History Graph

Search for Another Location

Airport:

Trip Planner

Search our weather history database for the weather conditions in past years. The results will help you decide how hot, cold, wet, or windy it might be!

Date:

Astronomy

Nov. 09, 2013 Rise Set
Actual Time 6:45 AM EST 4:54 PM EST
Civil Twilight 6:16 AM EST 5:22 PM EST
Nautical Twilight 5:44 AM EST 5:55 PM EST
Astronomical Twilight 5:12 AM EST 6:27 PM EST
Moon 12:20 PM EST (11/9) 11:22 PM EST (11/9)
Length of Visible Light 11h 06m
Length of Day
10h 08m
Waxing Crescent, 44% of the Moon is Illuminated
Nov 9
Waxing Crescent
Nov 10
First Quarter
Nov 17
Full
Nov 25
Last Quarter
Dec 2
New

Hourly Weather History & Observations

Time (EST) Temp. Windchill Dew Point Humidity Pressure Visibility Wind Dir Wind Speed Gust Speed Precip Events Conditions
12:58 AM 37.0 °F 34.5 °F 24.3 °F 60% 30.30 in 10.0 mi West 3.5 mph - N/A   Partly Cloudy
1:58 AM 36.1 °F 31.4 °F 23.5 °F 60% 30.30 in 10.0 mi West 5.8 mph - N/A   Clear
2:58 AM 34.0 °F 29.8 °F 25.2 °F 70% 30.28 in 10.0 mi West 4.6 mph - N/A   Clear
3:58 AM 28.9 °F - 25.0 °F 85% 30.31 in 10.0 mi SE 1.2 mph - N/A   Clear
4:58 AM 27.1 °F - 25.5 °F 94% 30.32 in 10.0 mi NE 2.3 mph - N/A   Clear
5:58 AM 27.3 °F - 25.2 °F 92% 30.32 in 10.0 mi NNE 1.2 mph - N/A   Clear
6:58 AM 27.9 °F - 27.0 °F 96% 30.32 in 10.0 mi NE 2.3 mph - N/A   Clear
7:58 AM 32.5 °F - 28.8 °F 86% 30.33 in 10.0 mi ESE 2.3 mph - N/A   Clear
8:58 AM 34.5 °F - 29.3 °F 81% 30.33 in 10.0 mi Calm Calm - N/A   Clear
9:58 AM 38.3 °F 34.8 °F 27.5 °F 65% 30.32 in 10.0 mi SW 4.6 mph - N/A   Clear
10:58 AM 44.2 °F 41.8 °F 27.9 °F 53% 30.29 in 10.0 mi Variable 4.6 mph - N/A   Clear
11:58 AM 47.3 °F - 27.3 °F 46% 30.24 in 10.0 mi WSW 6.9 mph - N/A   Clear
12:58 PM 48.9 °F - 27.5 °F 43% 30.20 in 10.0 mi SSW 11.5 mph - N/A   Clear
1:58 PM 50.0 °F - 26.8 °F 41% 30.15 in 10.0 mi SSW 11.5 mph - N/A   Mostly Cloudy
2:58 PM 50.2 °F - 26.6 °F 40% 30.12 in 10.0 mi SSW 11.5 mph - N/A   Overcast
3:58 PM 50.0 °F - 25.7 °F 39% 30.11 in 10.0 mi South 10.4 mph - N/A   Overcast
4:58 PM 48.9 °F - 26.1 °F 41% 30.10 in 10.0 mi SSW 6.9 mph - N/A   Overcast
5:58 PM 46.0 °F 43.9 °F 25.5 °F 45% 30.09 in 10.0 mi South 4.6 mph - N/A   Scattered Clouds
6:58 PM 41.0 °F - 27.9 °F 60% 30.09 in 10.0 mi North 2.3 mph - N/A   Clear
7:58 PM 36.1 °F - 29.5 °F 77% 30.09 in 10.0 mi NNE 2.3 mph - N/A   Clear
8:58 PM 34.9 °F - 28.8 °F 78% 30.06 in 10.0 mi Calm Calm - N/A   Clear
9:58 PM 32.7 °F - 29.5 °F 88% 30.04 in 10.0 mi NE 2.3 mph - N/A   Partly Cloudy
10:58 PM 33.1 °F - 30.0 °F 89% 30.02 in 10.0 mi Calm Calm - N/A   Clear
11:58 PM 32.9 °F - 30.6 °F 91% 30.01 in 10.0 mi Calm Calm - N/A   Clear